Location: Bédeille
(43.0872°N, 1.1041°E)
Time: 13:35:43
(UTC+00:00)

Cosmos 1190 Rocket - Pass Details

Date: 03 February 2023
Orbit: 756 x 778 km, 74.1° (Epoch: 19 March)

Event Time Altitude Azimuth Distance (km) Brightness Sun altitude
Rises 17:31:40 0° 190° (S) 3,245 7.7 -4.5°
Reaches altitude 10° 17:34:03 10° 187° (S) 2,321 6.9 -4.9°
Maximum altitude 17:39:16 65° 106° (ESE) 854 4.1 -5.8°
Drops below altitude 10° 17:44:31 10° 26° (NNE) 2,330 6.1 -6.7°
Sets 17:46:54 0° 24° (NNE) 3,258 6.9 -7.2°
